Home > Weather > Orenburg > Past weeks

Flag for Russia Past Weather in Orenburg, Russia — Yesterday and Last 2 Weeks

Now
52 °F

Clear.


Feels Like: 51 °F
Forecast: 53 / 80 °F
Wind: 3 mph from West

Location: Orenburg / Tsentralny

Current Time: Jun 30, 2016 at 6:50:57 AM

Latest Report: Jun 30, 2016 at 6:00 AM


Visibility: 10 mi

Pressure: 29.80 "Hg

Humidity: 82%

Dew Point: 46 °F

Location of OrenburgLocation

Past Weather in Orenburg — Graph

°F

Orenburg Temperature Yesterday

Maximum temperature yesterday: 77 °F (at 6:00 PM)
Minimum temperature yesterday: 45 °F (at 5:00 AM)
Average temperature yesterday: 62 °F

High & Low Weather Summary for the Past Weeks

 TemperatureHumidityPressure
High91 °F (Jun 21, 3:30 PM)100% (Jun 22, 4:30 AM)30.21 "Hg (Jun 22, 4:30 AM)
Low45 °F (Jun 29, 5:00 AM)14% (Jun 18, 3:30 PM)29.53 "Hg (Jun 28, 2:30 AM)
Average73 °F49%29.96 "Hg
* Reported Jun 15 5:00 AM — Jun 30 5:30 AM, Orenburg, Weather by CustomWeather, © 2016

Note: Actual official high and low records may vary slightly from our data, if they occured in-between our weather recording intervals... More about our weather records

Advertising

Orenburg Weather History for the Previous 24 Hours

Scroll right to see more
 ConditionsComfort  
Time TempWeatherWind HumidityBarometerVisibility
5:30 AM
Thu, Jun 30
52 °FClear.3 mph82%29.80 "Hg10 mi
5:00 AM50 °FClear.6 mph82%29.80 "Hg10 mi
4:30 AM50 °FClear.6 mph82%29.80 "Hg10 mi
4:00 AM54 °FClear.6 mph77%29.80 "Hg10 mi
3:30 AM54 °FPassing clouds.6 mph72%29.80 "HgN/A
3:00 AM55 °FPassing clouds.6 mph67%29.80 "HgN/A
2:30 AM55 °FPassing clouds.3 mph67%29.80 "HgN/A
2:00 AM55 °FPassing clouds.1 mph67%29.80 "HgN/A
1:30 AM59 °FPassing clouds.1 mph55%29.80 "HgN/A
1:00 AM57 °FPassing clouds.8 mph59%29.80 "HgN/A
12:30 AM59 °FPassing clouds.8 mph55%29.80 "HgN/A
12:00 AM59 °FPassing clouds.8 mph55%29.80 "HgN/A
11:30 PM
Wed, Jun 29
59 °FPassing clouds.8 mph55%29.80 "HgN/A
11:00 PM61 °FPassing clouds.6 mph52%29.80 "HgN/A
10:30 PM61 °FPassing clouds.6 mph52%29.80 "HgN/A
10:00 PM64 °FPassing clouds.3 mph49%29.80 "HgN/A
9:30 PM68 °FPassing clouds.3 mph40%29.77 "HgN/A
9:00 PM72 °FScattered clouds.6 mph36%29.80 "HgN/A
8:30 PM72 °FScattered clouds.10 mph33%29.77 "HgN/A
8:00 PM75 °FScattered clouds.13 mph29%29.77 "HgN/A
7:30 PM73 °FPartly sunny.13 mph31%29.77 "HgN/A
7:00 PM75 °FPartly sunny.15 mph29%29.77 "HgN/A
6:30 PM77 °FScattered clouds.15 mph28%29.77 "HgN/A
6:00 PM77 °FScattered clouds.15 mph28%29.77 "HgN/A
5:30 PM75 °FScattered clouds.15 mph29%29.77 "HgN/A
5:00 PM75 °FScattered clouds.13 mph29%29.77 "HgN/A
4:30 PM75 °FScattered clouds.10 mph29%29.77 "HgN/A
4:00 PM75 °FPartly sunny.13 mph29%29.77 "HgN/A
3:30 PM73 °FPartly sunny.10 mph31%29.77 "HgN/A
3:00 PM73 °FPartly sunny.15 mph31%29.77 "HgN/A
2:30 PM70 °FPartly sunny.17 mph38%29.77 "HgN/A
2:00 PM68 °FPartly sunny.15 mph40%29.80 "HgN/A
1:30 PM68 °FPartly sunny.15 mph40%29.80 "HgN/A
1:00 PM66 °FPartly sunny.15 mph43%29.80 "HgN/A
12:30 PM66 °FPartly sunny.15 mph43%29.80 "HgN/A
12:00 PM64 °FPartly sunny.15 mph46%29.80 "HgN/A
11:30 AM63 °FPartly sunny.15 mph49%29.80 "HgN/A
11:00 AM63 °FPartly sunny.13 mph49%29.80 "HgN/A
10:30 AM61 °FPartly sunny.13 mph52%29.77 "HgN/A
10:00 AM59 °FPartly sunny.17 mph55%29.77 "HgN/A
9:30 AM61 °FPartly sunny.15 mph52%29.77 "HgN/A
9:00 AM59 °FPartly sunny.15 mph59%29.77 "HgN/A
8:30 AM59 °FPartly sunny.15 mph63%29.77 "HgN/A
8:00 AM57 °FPartly sunny.13 mph63%29.77 "HgN/A
7:30 AM55 °FPartly sunny.10 mph67%29.77 "HgN/A
7:00 AM54 °FPartly sunny.10 mph72%29.77 "HgN/A
6:30 AM52 °FPartly sunny.8 mph72%29.77 "HgN/A
6:00 AM52 °FPassing clouds.8 mph77%29.77 "HgN/A
Weather by CustomWeather, © 2016

See weather overviewHow to use our weather pages